Preview of NWS' New Version of Forecast
This preview is not operational and should not be used for support decisions.

Regional Weather Roundup (RWR)

Issued by National Weather Service (NWS)

                            
000
ASUS45 KBOI 171110
RWRID 

IDAHO REGIONAL WEATHER ROUNDUP
NATIONAL WEATHER SERVICE BOISE ID
400 AM MST SUN FEB 17 2019

NOTE: "FAIR" INDICATES FEW OR NO CLOUDS BELOW 12000 FEET
WITH NO SIGNIFICANT WEATHER AND/OR OBSTRUCTIONS TO VISIBILITY

IDZ012-014-171200-
SOUTHWEST IDAHO

  
CITY           SKY/WX    TMP DP  RH WIND       PRES   REMARKS
BOISE          CLOUDY    31  29  92 E3        29.84S                  
CALDWELL       CLOUDY    30  29  96 E3        29.86S                  
MOUNTAIN HOME  CLOUDY    30 N/A N/A CALM      29.84S                  
$$

IDZ016-017-171200-
SOUTHCENTRAL IDAHO

  
CITY           SKY/WX    TMP DP  RH WIND       PRES   REMARKS
JEROME         LGT SNOW  28  25  88 S8        29.80F FOG     WCI  20  
TWIN FALLS     CLOUDY    26  23  88 S13       29.79F WCI  15          
$$

IDZ019>023-171200-
SOUTHEAST IDAHO

  
CITY           SKY/WX    TMP DP  RH WIND       PRES   REMARKS
IDAHO FALLS    HVY SNOW  20  18  92 N5        29.81S VSB 1/4 WCI  13  
POCATELLO      CLOUDY    26  23  88 CALM      29.81S                  
REXBURG        CLOUDY    23  21  92 CALM      29.79S                  
$$

IDZ006-010-011-018-031-032-171200-
CENTRAL IDAHO MOUNTAINS

  
CITY           SKY/WX    TMP DP  RH WIND       PRES   REMARKS
MCCALL         CLOUDY    23  20  88 CALM      29.71S                  
HAILEY         MOCLDY    12   9  85 NW9       29.79S WCI   0          
STANLEY          N/A     11   4  73 CALM      29.72R                  
SALMON         PTCLDY    18  15  88 CALM      29.81R                  
CHALLIS        CLOUDY    16  13  88 CALM      29.77R                  
$$

IDZ002-004-006-007-026-171200-
NORTHERN IDAHO

  
CITY           SKY/WX    TMP DP  RH WIND       PRES   REMARKS
LEWISTON       CLOUDY    33  30  88 CALM      29.89S                  
LOWELL         NOT AVBL                                               
COEUR D'ALENE  CLOUDY    30  29  96 SW3       29.86R FOG              
MULLAN PASS    CLOUDY    19  15  84 N3        29.69S                  
$$